Theta_e
316 317 319 320 319 320 319 320 321 321 316 316 318 319 319 313 312 313 312 310 308 305 303 306 307 309 313 316 319 320 321 321 321 321 321 321 321 319 319 317 315 314 312 311
316 317 319 319 319 319 318 319 320 320 315 314 318 319 319 316 313 313 313 311 308 304 302 304 307 309 314 316 318 318 318 318 319 319 318 318 317 314 309 306 306 305 304 304
319 319 316 316 316 317 318 318 319 320 316 314 316 318 319 318 315 313 312 311 308 305 303 303 306 308 311 313 313 313 314 315 315 314 313 311 307 305 304 303 303 302 302 301
317 318 315 316 317 317 319 318 317 317 317 321 317 322 321 321 316 312 309 308 306 305 303 302 304 307 308 308 308 308 308 307 306 306 305 304 304 303 302 301 300 299 298 297
318 314 314 315 317 316 318 315 316 317 318 319 320 318 321 321 319 315 310 307 306 304 302 300 300 303 304 304 304 304 303 303 302 302 302 301 301 300 299 298 297 296 296 295
316 311 314 316 312 314 314 315 315 315 318 322 321 321 323 320 317 318 310 307 305 303 301 299 300 302 302 302 302 302 302 301 300 300 299 298 298 298 297 296 296 295 295 294
316 315 313 312 314 311 315 318 324 323 321 324 317 322 322 321 314 315 310 306 305 302 300 298 300 300 301 301 301 301 300 299 299 298 298 297 297 297 296 296 295 294 294 293
322 323 318 313 318 319 315 319 325 328 327 324 311 318 319 315 312 309 310 306 304 302 299 298 300 300 301 301 300 300 299 298 298 298 297 297 296 296 295 295 294 293 293 292
322 323 315 314 315 318 316 318 319 320 312 319 319 317 316 309 307 307 309 306 303 301 299 298 299 300 300 300 300 299 298 298 298 297 297 296 295 294 294 294 293 293 292 292
321 322 314 312 310 312 315 315 316 317 326 326 322 322 321 312 310 308 308 306 303 301 299 298 298 299 299 299 299 298 298 297 297 297 296 295 294 293 293 293 292 291 291 290
318 318 314 310 312 315 313 314 315 317 320 325 325 322 319 319 314 309 307 305 303 301 299 298 298 299 299 299 299 298 297 296 296 296 295 294 293 292 292 291 291 290 289 289
317 318 323 317 313 311 315 316 315 319 319 317 319 322 311 317 316 311 308 306 304 302 300 299 298 299 299 298 298 298 296 296 295 295 294 293 292 291 291 291 290 289 289 288
315 317 322 322 313 309 311 313 314 315 318 321 323 323 309 308 310 310 309 306 305 303 301 299 298 298 298 299 299 298 297 296 295 294 293 292 291 291 290 290 289 289 288 288
314 318 321 325 322 317 314 313 313 314 317 319 320 320 310 309 309 308 308 307 305 303 301 300 298 298 298 299 299 298 298 295 295 294 293 292 291 290 290 289 289 288 288 288
315 319 319 319 320 319 316 315 313 313 315 318 319 319 318 311 310 309 307 307 305 303 302 301 300 298 298 297 297 298 297 297 296 295 294 293 290 289 289 289 289 288 288 288
311 317 316 317 318 318 317 315 315 313 314 315 316 317 317 312 310 310 308 306 305 304 304 303 301 299 298 297 297 298 298 298 297 297 295 292 290 289 289 288 288 288 288 288
311 313 315 319 317 317 315 316 315 315 313 315 316 316 313 312 308 308 307 306 307 306 305 303 302 300 299 298 299 299 300 299 299 297 295 292 290 290 289 288 288 288 288 287
311 310 314 318 314 320 317 314 313 315 315 314 313 310 309 309 307 308 308 307 306 305 304 303 301 300 300 300 301 301 300 299 298 297 295 293 291 290 288 288 288 287 287 287
310 311 314 317 317 317 317 303 309 313 315 314 312 307 303 305 308 309 311 310 307 306 304 303 302 301 301 301 301 298 297 295 295 295 295 294 292 290 289 289 288 288 287 287
303 310 313 310 318 320 313 304 304 308 314 309 309 305 301 301 308 308 305 303 304 303 303 302 301 301 299 296 295 294 294 294 294 295 295 294 293 291 290 289 289 288 287 287
305 307 311 315 315 316 306 297 301 313 316 302 306 302 300 303 306 304 302 300 299 299 298 297 295 294 293 293 293 293 293 292 292 293 291 290 290 290 289 289 288 288 287 286
309 310 310 312 313 315 298 296 307 304 297 300 304 305 303 301 300 298 297 297 296 295 294 293 293 293 292 292 292 292 292 291 290 290 289 289 289 288 288 288 288 287 286 286
308 309 311 310 310 295 296 296 298 298 300 299 302 304 303 301 297 295 296 295 294 293 293 293 292 292 292 292 292 291 291 291 290 290 289 289 289 288 288 288 288 287 286 285
299 297 306 305 298 297 294 297 298 300 300 300 297 299 299 299 294 294 293 293 293 292 292 292 292 292 291 291 291 291 291 290 290 290 290 289 289 289 288 288 287 287 286 285
298 297 300 296 293 293 295 297 300 299 295 296 296 296 295 295 294 294 293 292 292 292 292 292 292 291 291 291 291 291 290 290 290 289 289 289 289 288 288 287 287 286 285 284
294 296 298 301 294 299 296 300 300 299 299 298 295 294 294 294 294 293 292 292 292 292 292 291 291 290 290 291 290 290 290 289 289 289 289 289 288 288 287 287 286 286 285 284
Wind_Speed
11 9 14 18 17 17 8 9 12 7 3 4 13 15 12 17 17 17 16 14 12 10 8 8 9 11 12 13 15 16 18 20 19 19 18 17 15 13 10 8 7 5 4 3
5 16 18 12 10 14 13 14 16 13 4 4 12 16 16 18 23 23 20 17 14 11 9 10 12 15 17 18 19 20 20 20 18 17 16 16 17 16 15 13 11 9 7 6
17 5 6 10 8 12 15 15 14 14 2 10 13 19 22 25 21 17 17 17 16 17 15 14 16 16 19 20 19 19 19 18 17 18 19 19 19 18 15 13 10 8 6 5
14 13 6 10 15 14 16 13 14 11 6 10 5 10 12 10 17 18 19 21 20 19 16 17 19 20 22 24 25 23 22 22 22 21 19 16 15 14 13 11 8 6 5 4
5 9 11 13 13 11 8 2 6 10 13 14 16 9 14 11 16 18 23 25 22 21 21 20 20 24 27 26 26 24 24 22 19 17 14 12 11 12 11 10 7 5 4 4
12 2 6 9 3 8 10 5 3 2 7 10 17 16 11 11 15 16 22 26 27 25 23 22 25 27 27 27 26 24 22 20 17 14 12 9 9 10 10 8 6 5 4 4
14 15 6 5 5 3 13 9 4 5 6 8 1 14 15 6 7 7 22 29 30 28 27 26 31 30 29 27 25 24 21 18 15 13 12 10 11 10 9 8 5 3 3 4
14 9 22 17 21 10 19 17 6 7 6 5 2 9 6 3 10 7 20 27 28 28 28 30 33 33 32 30 28 25 22 17 15 14 14 12 10 9 8 7 5 2 0 1
10 10 6 9 9 16 7 14 13 5 2 4 7 11 9 8 8 9 19 27 31 32 32 32 34 35 34 33 30 27 24 19 16 15 15 13 10 10 8 7 6 5 4 4
4 7 5 5 3 5 8 8 5 6 6 8 9 16 10 8 15 15 19 28 30 30 30 32 35 35 34 32 30 28 25 20 17 16 15 14 12 11 11 9 8 7 6 5
8 6 6 7 12 17 7 9 9 5 9 4 5 8 9 15 17 21 21 28 32 35 35 36 37 37 36 35 32 30 27 23 20 18 17 16 15 15 13 11 10 8 7 5
14 3 10 13 2 9 17 14 20 6 6 5 4 14 2 2 11 19 23 27 30 34 34 35 37 40 38 37 35 33 29 26 22 21 20 19 19 18 16 14 12 10 7 5
13 4 3 5 2 1 9 15 16 17 2 15 7 7 2 4 4 14 21 25 29 32 33 34 36 41 41 39 37 34 32 29 25 25 23 22 22 21 19 17 15 12 9 7
18 6 12 18 9 9 9 16 21 18 11 18 25 17 6 9 11 15 17 22 26 32 34 36 36 40 42 41 39 37 33 31 29 26 25 25 25 23 21 20 17 15 12 10
13 12 18 25 22 16 9 18 24 28 36 17 28 23 15 14 15 22 23 21 23 27 31 36 37 38 39 39 38 35 33 31 30 28 27 28 26 26 25 23 21 18 16 14
4 9 16 23 22 22 21 18 24 30 31 30 29 28 3 21 20 17 21 23 24 26 30 34 37 38 39 36 39 36 33 32 30 29 30 29 29 29 27 26 24 22 21 20
11 7 7 15 13 18 7 39 22 24 29 23 27 28 6 7 11 17 16 19 22 27 30 32 38 40 39 34 36 34 29 29 29 30 31 31 31 29 28 28 27 27 25 25
11 14 8 8 5 12 21 5 20 32 28 23 19 1 3 9 11 15 9 17 20 22 22 26 29 29 33 33 30 25 25 26 28 30 32 31 30 30 30 30 30 30 29 29
7 12 5 6 11 10 16 4 8 11 22 21 14 10 11 14 4 10 19 22 24 23 23 21 22 24 24 24 23 22 23 24 25 26 27 28 29 30 31 32 32 32 32 31
2 10 10 4 6 10 4 6 2 6 11 8 18 15 11 19 6 7 24 22 22 18 17 17 19 21 20 20 20 20 20 20 21 21 21 22 24 27 29 30 31 33 33 32
4 3 14 13 6 4 2 6 7 8 2 3 19 21 19 7 7 8 18 21 18 18 18 18 17 16 15 15 15 17 19 20 19 16 15 18 22 24 25 27 30 32 33 32
10 9 5 5 5 10 8 5 8 0 4 12 15 21 20 13 11 13 18 21 22 21 19 16 14 12 12 14 17 20 21 18 16 15 17 20 22 24 24 25 28 31 32 32
6 4 4 5 1 2 11 3 4 5 8 6 11 17 19 18 16 20 23 23 21 18 17 15 13 12 14 15 19 21 18 22 19 17 19 22 25 26 27 27 28 29 31 32
4 3 3 4 2 1 2 7 7 7 9 12 12 16 18 22 21 22 22 21 20 18 15 13 13 13 15 18 21 24 24 25 25 22 23 25 27 30 30 30 29 30 31 32
1 9 6 3 5 7 10 11 15 17 13 11 13 18 20 21 22 21 21 21 17 14 14 14 15 16 18 20 24 26 30 31 31 28 27 28 29 31 31 30 30 30 31 31
7 5 4 2 15 9 18 23 24 23 23 20 20 21 19 17 18 20 21 20 18 17 17 18 18 19 19 21 23 26 30 33 32 33 33 32 30 29 28 30 30 31 33 34
Wind_Direction
200 216 218 224 226 252 292 280 267 280 93 266 242 251 235 198 214 217 212 205 198 195 202 194 181 167 156 147 140 133 134 134 137 139 143 152 159 153 142 130 122 119 113 101
186 229 238 241 267 237 240 253 257 268 145 255 272 262 258 209 212 215 216 213 201 187 175 177 170 165 161 155 150 149 150 149 154 156 157 151 142 132 129 123 120 110 96 79
226 220 251 197 211 220 235 240 253 262 135 237 274 268 253 244 210 220 231 217 200 190 178 173 166 165 165 163 158 154 153 151 147 142 139 134 133 129 128 124 121 110 94 77
242 235 161 207 227 219 246 226 254 264 254 265 163 283 280 241 203 212 210 204 195 186 175 168 166 160 156 156 155 151 145 140 138 138 137 139 138 139 136 133 123 110 96 73
206 188 201 212 223 209 248 62 232 251 261 273 252 268 265 247 219 208 207 202 196 186 176 170 165 163 160 155 151 150 149 148 147 146 145 148 151 146 141 137 129 114 90 66
257 31 210 227 90 206 130 125 116 229 255 251 233 227 255 202 232 224 192 196 190 183 176 172 173 166 163 161 160 158 157 156 156 156 158 157 157 149 145 136 129 120 96 63
216 220 177 180 149 162 200 179 239 235 212 255 138 214 248 207 174 209 183 188 185 181 177 177 176 172 170 167 165 164 164 165 166 170 172 171 166 156 150 139 128 113 70 35
210 223 200 200 214 193 199 203 203 243 228 261 54 232 244 272 118 131 184 183 181 182 182 184 182 179 177 176 175 174 172 175 178 182 183 183 180 175 164 155 155 154 174 312
211 237 175 179 219 210 176 223 240 304 158 271 216 243 267 157 176 166 172 178 185 187 187 187 187 187 186 186 184 183 183 184 186 189 194 195 193 189 188 183 189 210 235 257
233 247 168 149 162 251 218 159 174 220 226 238 246 244 236 211 200 184 179 183 187 188 190 191 192 193 193 193 192 191 192 194 195 196 196 200 205 206 209 212 218 226 237 250
211 237 131 152 203 187 182 204 225 243 226 251 271 249 196 206 197 188 189 188 187 189 192 192 195 198 199 200 200 200 200 200 200 202 206 208 214 219 221 224 225 230 237 255
203 250 236 220 114 271 232 214 205 213 193 236 276 258 118 226 186 179 186 188 190 193 193 193 197 203 203 205 205 207 207 208 207 209 210 214 220 223 225 227 230 232 240 266
164 201 239 251 206 196 228 222 226 231 49 229 211 250 79 124 144 172 180 186 187 190 191 193 199 206 208 208 211 212 212 215 215 215 215 219 223 226 229 231 231 237 243 261
164 150 206 233 225 164 202 211 211 216 225 235 236 248 182 204 190 183 185 184 186 189 191 193 199 206 211 211 213 215 217 219 222 222 223 225 229 230 232 233 235 237 244 257
180 222 219 241 255 267 213 214 206 211 227 216 246 237 228 194 197 193 187 182 182 188 193 200 204 204 208 212 215 216 220 223 229 228 230 233 232 232 232 236 240 242 250 262
185 232 224 254 243 244 242 238 217 216 229 233 248 254 230 186 194 186 183 178 189 195 207 212 207 206 205 209 215 219 222 228 234 237 238 236 234 234 238 241 244 248 253 262
163 202 193 245 225 245 275 236 227 229 225 226 234 246 169 162 181 194 180 195 213 218 216 215 215 212 212 206 218 222 228 235 242 243 241 238 238 242 243 245 249 252 258 262
179 195 208 248 117 217 238 250 228 233 238 228 244 70 157 166 162 197 208 228 229 227 225 224 216 212 220 220 223 229 231 240 244 245 244 242 243 245 245 248 253 257 260 267
210 185 204 217 217 290 271 179 178 181 244 228 222 138 137 120 127 253 247 238 234 230 225 224 223 216 213 211 218 225 231 238 243 246 244 244 244 246 249 254 259 262 264 268
54 211 206 153 224 231 329 127 179 107 256 196 183 175 153 146 198 229 213 200 199 201 201 195 190 197 204 206 215 226 234 239 245 249 247 244 247 250 254 261 264 264 265 266
147 188 214 221 228 273 132 151 152 170 278 99 161 160 153 160 203 171 179 184 187 186 186 183 186 195 208 221 232 236 238 240 241 236 239 248 251 255 259 262 263 264 264 264
178 176 194 208 224 242 139 120 189 153 99 151 168 175 176 170 160 156 168 174 173 173 176 186 198 206 219 228 231 231 232 232 223 245 253 251 252 253 256 262 265 263 261 264
208 196 175 207 205 324 167 60 163 126 139 153 181 196 199 186 178 171 168 169 173 180 189 198 202 207 216 228 235 237 242 227 235 257 256 254 252 253 258 261 262 262 263 264
223 194 182 154 134 146 93 135 155 187 220 226 205 191 191 187 179 172 173 178 187 193 197 204 215 228 234 242 248 243 235 235 242 254 256 257 259 260 260 259 262 265 267 268
68 146 142 91 121 141 202 208 199 215 204 195 202 199 190 187 184 189 192 196 197 207 220 232 244 247 247 253 255 249 238 240 244 252 259 264 264 261 260 262 265 269 270 270
182 155 180 183 160 161 195 190 194 213 224 228 197 183 189 197 203 207 208 209 213 224 234 242 244 248 251 253 252 245 241 246 253 259 264 266 264 260 260 262 264 268 269 269